User: anonymous   Login
Location: Donald C. Martin Observatory
(38.3885°N, 82.3916°W)
Time: 19:28:47
(UTC-05:00)
Language:

Cosmos 1484 Rocket - Orbit

View from above orbital plane
View from above orbital plane
View from above satellite
View from above satellite

Ground track
Ground track

The orbit data is extracted from the following two-line orbital elements,

1 14208U 83075B   16042.96178153 +.00001691 +00000-0 +10685-3 0  9991
2 14208 097.3648 067.3198 0040902 027.1686 333.1672 15.09682762773078
Epoch (UTC): 11 February 2016 23:04:57
Eccentricity: 0.0040902
inclination: 97.3648°
perigee height: 509 km
apogee height: 565 km
right ascension of ascending node: 67.3198°
argument of perigee: 27.1686°
revolutions per day: 15.09682762
mean anomaly at epoch: 333.1672°
orbit number at epoch: 77307

The dashed part of the orbit path shows where the satellite is in the earth's shadow,  

DLR